Back to catalog

SL-12 DEB

AliveHEO
NORAD 26037·DEBRIS·🇷🇺 Russia

Launched Sep 16, 1987 from Baikonur Cosmodrome

Loading…

Next Passes (next 24 hours)

TLE

FreshSource: Space-Track

Epoch: Sep 13, 2026, 11:03 UTC

1 26037U 87079W   26256.46107843 -.00000242  00000-0 -74147-3 0  9999
2 26037  64.9870  19.9685 5411367  62.5575 341.8253  4.64002941468182

Track SL-12 DEB in real time with AllMySat

Download on the App Store